This demonstration page uses our WeatherBlox Daily Observations layout. Learn more.

Left ArrowRight Arrow

Hourly Observations for December 10, 2015

Temp ( °F °C ) Dew Point ( °F °C ) Humidity (%) Winds ( mph kmh ) Pressure ( in mb ) Visibility ( mi km ) Precip ( " mm )
12:24 am 00:24 Clear with Mist and Fog 33 0.6 32 undefined 96 96 E 3 6 29.94 1014 3 4 N/A
12:41 am 00:41 Clear with Mist and Fog 33 0.6 32 undefined 96 96 ESE 3 6 29.94 1014 2 2 N/A
12:51 am 00:51 Clear with Fog 34 1 34 1 100 100 N N/A 29.94 1014 0 0 N/A
12:53 am 00:53 Clear with Fog 34 1.1 33 0.6 97 97 E 3 6 29.92 1013 0 0 N/A
1:09 am 01:09 Clear with Mist and Fog 36 2.2 35 1.7 97 97 E 5 7 29.94 1014 2 3 N/A
1:12 am 01:12 Clear with Mist and Fog 37 2.8 36 2.2 96 96 E 5 7 29.94 1014 3 5 N/A
1:53 am 01:53 Clear with Mist and Fog 40 4.4 39 3.9 97 97 ESE 5 7 29.91 1013 5 8 N/A
2:53 am 02:53 Clear with Mist and Fog 39 3.9 38 3.3 96 96 E 5 7 29.91 1013 4 6 N/A
3:53 am 03:53 Clear with Mist and Fog 39 3.9 38 3.3 96 96 N N/A 29.92 1013 4 6 N/A
4:36 am 04:36 Clear with Mist and Fog 38 3.3 37 2.8 97 97 N N/A 29.94 1014 2 3 N/A
4:40 am 04:40 Clear with Mist and Fog 36 2.2 35 1.7 97 97 N N/A 29.94 1014 1 1 N/A
4:53 am 04:53 Mostly Cloudy with Fog 37 2.8 36 2.2 96 96 E 3 6 29.92 1013 1 1 N/A
5:01 am 05:01 Clear with Mist and Fog 38 3.3 37 2.8 97 97 ESE 3 6 29.94 1014 2 2 N/A
5:03 am 05:03 Clear with Mist and Fog 38 3.3 37 2.8 97 97 ESE 5 7 29.94 1014 2 3 N/A
5:19 am 05:19 Clear with Mist and Fog 37 2.8 36 2.2 96 96 SE 3 6 29.97 1015 2 2 N/A
5:27 am 05:27 Mostly Cloudy with Fog 36 2.2 35 1.7 97 97 ESE 3 6 29.97 1015 1 1 N/A
5:53 am 05:53 Mostly Cloudy with Fog 34 1.1 33 0.6 97 97 ESE 3 6 29.94 1014 0 0 N/A
6:31 am 06:31 Mostly Cloudy with Fog 39 3.9 38 3.3 96 96 SE 3 6 29.94 1014 0 0 N/A
6:53 am 06:53 Mostly Cloudy with Fog 42 5.6 42 5.6 100 100 SE 3 6 29.93 1013 0 0 N/A
7:27 am 07:27 Cloudy with Mist and Fog 44 6.7 44 6.7 100 100 N N/A 29.94 1014 1 2 N/A
7:53 am 07:53 Cloudy with Mist and Fog 45 7.2 44 6.7 97 97 VRB 5 7 29.93 1014 1 2 N/A
8:39 am 08:39 Cloudy with Mist and Fog 46 7.8 45 7.2 96 96 SSW 5 7 29.97 1015 2 3 N/A
8:53 am 08:53 Cloudy with Mist and Fog 46 7.8 45 7.2 96 96 S 5 7 29.94 1014 3 4 N/A
9:24 am 09:24 Cloudy with Mist and Fog 47 8.3 46 7.8 97 97 VRB 3 6 29.97 1015 3 5 N/A
9:42 am 09:42 Cloudy with Mist and Fog 47 8.3 45 7.2 93 93 VRB 5 7 29.97 1015 3 5 N/A
9:53 am 09:53 Cloudy with Mist and Fog 48 8.9 45 7.2 89 89 VRB 6 9 29.94 1014 3 5 N/A
10:53 am 10:53 Cloudy with Mist and Fog 50 10 46 7.8 86 86 VRB 7 11 29.93 1014 6 10 N/A
11:08 am 11:08 Mostly Cloudy 52 11.1 46 7.8 80 80 SSW 10 17 29.97 1015 7 11 N/A
11:24 am 11:24 Partly Cloudy 53 11.7 46 7.8 77 77 S 8 13 29.94 1014 7 11 N/A
11:53 am 11:53 Sunny 54 12.2 46 7.8 75 75 S 6 9 29.91 1013 8 13 N/A
12:53 pm 12:53 Sunny 55 12.8 45 7.2 69 69 VRB 6 9 29.86 1011 9 14 N/A
1:53 pm 13:53 Sunny 55 12.8 46 7.8 72 72 VRB 5 7 29.83 1010 10 16 N/A
2:53 pm 14:53 Sunny 57 13.9 46 7.8 67 67 S 5 7 29.80 1009 10 16 N/A
3:53 pm 15:53 Sunny 58 14.4 45 7.2 62 62 SSW 6 9 29.80 1009 10 16 N/A
4:53 pm 16:53 Sunny 56 13.3 47 8.3 72 72 S 5 7 29.82 1010 10 16 N/A
5:53 pm 17:53 Clear 54 12.2 48 8.9 80 80 SSE 6 9 29.81 1010 10 16 N/A
6:53 pm 18:53 Clear 54 12.2 47 8.3 77 77 VRB 6 9 29.78 1009 10 16 N/A
7:53 pm 19:53 Clear 54 12.2 44 6.7 69 69 VRB 7 11 29.78 1009 10 16 N/A
8:53 pm 20:53 Clear 52 11.1 45 7.2 77 77 VRB 3 6 29.78 1008 10 16 N/A
9:53 pm 21:53 Clear 49 9.4 44 6.7 83 83 SSW 3 6 29.79 1009 10 16 N/A
10:53 pm 22:53 Clear 51 10.6 46 7.8 83 83 SSW 6 9 29.79 1009 10 16 N/A
11:33 pm 23:33 Mostly Cloudy 52 11.1 47 8.3 83 83 SW 7 11 29.83 1010 10 16 N/A
11:53 pm 23:53 Cloudy 53 11.7 48 8.9 83 83 SW 6 9 29.79 1009 10 16 N/A

Powered by AerisWeather